Regional Weather Roundup
Issued by NWS Bismarck, ND

Home | Current Version | Previous Version | Text Only | Print | Product List | Glossary On
Versions: 1 2 3 4 5 6 7 8 9 10 11 12 13 14 15 16 17 18 19 20 21 22 23 24 25 26 27 28 29 30 31 32 33 34 35 36 37 38 39 40 41 42 43 44 45 46 47 48 49 50
000
ASUS43 KBIS 051702
RWRBIS

NWR BROADCAST TEXT
NATIONAL WEATHER SERVICE BISMARCK ND
1200 PM CDT SUN JUL 05 2015

NOTE: "FAIR" INDICATES FEW OR NO CLOUDS BELOW 12,000 FEET WITH NO
SIGNIFICANT WEATHER AND/OR OBSTRUCTIONS TO VISIBILITY.


CITY           SKY/WX    TMP DP  RH WIND       PRES   REMARKS
WILLISTON      CLOUDY    74  56  53 N17G25    29.95R HAZE
MINOT          PTSUNNY   70  62  76 NW8       29.85R HAZE
MINOT AFB      NOT AVBL
BISMARCK       LGT RAIN  68  64  87 E10       29.78F
DICKINSON      PTSUNNY   70  62  76 NW17G24   29.88R
GARRISON         N/A     71  62  73 N7        29.85R
HETTINGER ARPT PTSUNNY   69  62  78 NE18      29.85R
JAMESTOWN      CLOUDY    68  63  84 N10       29.79R
HAZEN          CLOUDY    68  63  83 N8        29.87R
OAKES            N/A     81  75  83 SW13G21   29.77R
STANLEY        PTSUNNY   68  64  88 N13G22    29.92R
$$

CITY           SKY/WX    TMP DP  RH WIND       PRES   REMARKS
GRAND FORKS    TSTM      67  66  97 NW10G28   29.82R FOG
GRAND FORKS AF TSTM      67  65  95 N1        29.81S FOG
DEVILS LAKE    CLOUDY    66  61  82 NE14      29.74F
FARGO          CLOUDY    84  69  60 SW16      29.74S
CAVALIER       TSTM      66  66 100 CALM      29.77S VSB 1
GRAFTON        TSTM      66  66 100 CALM      29.80R VSB 1
GWINNER        FAIR      82  70  65 SW17G23   29.76R
LANGDON        CLOUDY    64  64 100 NE10      29.77F FOG
$$

CITY           SKY/WX    TMP DP  RH WIND       PRES   REMARKS
ABERDEEN       SUNNY     83  70  64 S15       29.76R
MOBRIDGE       CLOUDY    75  72  90 N13       29.81R
BUFFALO          N/A     76  60  57 N16G23    29.82R
RAPID CITY     PTSUNNY   78  63  59 NE15      29.85R
GLASGOW        PTSUNNY   70  49  47 N17G25    30.03R
SIDNEY         SUNNY     72  52  49 N15       29.96R
WOLF POINT     SUNNY     74  48  39 N21G30    29.99R
GLENDIVE       CLOUDY    66  55  68 N20       29.99R
MILES CITY     CLOUDY    66  52  60 N14       30.01R HAZE
BAKER          PTSUNNY   76  58  53 N17       29.94R
$$

CITY           SKY/WX    TMP DP  RH WIND       PRES   REMARKS
BILLINGS       CLOUDY    58  52  80 N10       30.11R
GREAT FALLS    LGT RAIN  51  50  96 N13       30.17R FOG
$$



USA.gov is the U.S. government's official web portal to all federal, state and local government web resources and services.